Location: Bednik
(45.3500°N, 16.3833°E)
Time: 08:03:01
(UTC+00:00)

Cosmos 1140 Rocket - Pass Details

Date: 08 August 2020
Orbit: 745 x 767 km, 74.1° (Epoch: 26 September)

Event Time Altitude Azimuth Distance (km) Brightness Sun altitude
Rises 19:02:14 0° 170° (S) 3,216 6.3 -8.6°
Reaches altitude 10° 19:04:49 10° 160° (SSE) 2,297 5.5 -9.0°
Maximum altitude 19:09:20 30° 100° (E) 1,340 4.3 -9.6°
Drops below altitude 10° 19:13:52 10° 40° (NE) 2,314 5.9 -10.3°
Sets 19:16:29 0° 31° (NNE) 3,244 6.8 -10.7°
